Tracking 35275 objects as of 8-Sep-2026
HD Live streaming from Space Station
objects crossing your sky now

STS 39 DEB (CRO-A)


STS 39 DEB (CRO-A) is no longer on orbit


NORAD ID: 21247
Int'l Code: 1991-031F
Launch date: April 28, 1991
Source: United States (US)
Launch site: AIR FORCE EASTERN TEST RANGE (AFETR)
Decay date: 1991-05-13

Note: This is SATELLITE DEBRIS
Your satellite tracking list
Your tracking list is empty




NASA's NSSDC Master Catalog

Two Line Element Set (TLE):
1 21247U 91031  F 91133.46894800  .11646477 +52200-4 +31922-3 0  9995
2 21247 056.9810 217.8133 0013608 296.2049 063.7899 16.44280007002424
Source of the keplerian elements: AFSPC